Location: Banska Bystrica
(48.7333°N, 19.1500°E)
Time: 01:54:43
(UTC+01:00)

ISS - Pass Details

Date: 25 January 2021
Orbit: 417 x 422 km, 51.6° (Epoch: 06 March)

Event Time Altitude Azimuth Distance (km) Brightness Sun altitude
Rises 17:57:09 0° 259° (W) 2,369 2.1 -14.2°
Reaches altitude 10° 17:59:16 10° 263° (W) 1,506 0.5 -14.6°
Maximum altitude 18:02:38 65° 346° (NNW) 470 -3.6 -15.1°
Enters shadow 18:03:58 33° 57° (ENE) 738 -3.0 -15.3°
